Torna al catalogo

STARLINK-37735

AttivoComunicazioniVLEO
NORAD 69243·PAYLOAD·🇺🇸 United States

Lanciato May 29, 2026 da Cape Canaveral Space Force Station

Loading…

Prossimi Passaggi (prossime 24 ore)

TLE

AggiornatoSource: CelesTrak SupGP

Epoca: Sep 15, 2026, 04:25 UTC

1 69243C 26117F   26258.18451389 -.00010971  00000+0 -32419-3 0  2582
2 69243  53.1568 178.5800 0001310  78.9904 194.1487 15.34391206    14

Traccia STARLINK-37735 in tempo reale con AllMySat

Download on the App Store